www.pogodaiklimat.ru

Погода и климат >> Архив погоды >> Венгрия >> Шиофок


ПОГОДА в Шиофоке

  • Прогноз погоды в Шиофоке
  • Монитор погоды в Шиофоке

АРХИВ ПОГОДЫ в Шиофоке

Время (UTC), дата Ветер
(напр.,м/с)
 
Видим.   Явления Облачность Т
(С)
Тd
(С)
f
(%)
Тe
(С)
Тes
(С)
Комфортность P
(гПа)
Po
(гПа)
Тmin
(С)
Tmax
(С)
R
(мм)
R24
(мм)
S
(см)
19 11.09 СЗ 1 н/о н/о +19.4 +16.1 81 +22 +22 комфорт 1023.7 1010.8
20 11.09 З 1 н/о н/о +18.6 +16.2 86 +21 +21 комфорт 1024.1 1011.2
21 11.09 ЮЗ 1 н/о н/о +18.5 +15.7 84 +20 +20 1024.5 1011.6
22 11.09 ЮЗ 1 н/о н/о +17.4 +15.0 86 +18 +18 1024.8 1011.8
23 11.09 ЮЗ 2 н/о н/о +17.6 +15.1 85 +18 +18 1025.1 1012.1
00 12.09 ЮЗ 2 н/о н/о +17.4 +15.0 86 +18 +18 1025.2 1012.2
01 12.09 ЮЗ 2 н/о н/о +16.8 +14.4 86 +17 +17 1025.1 1012.1
02 12.09 ЮЗ 1 н/о н/о +16.9 +14.4 85 +18 +18 1025.4 1012.4
03 12.09 С 5 н/о н/о +19.7 +12.9 65 +21 +21 комфорт 1025.9 1013.0
04 12.09 С 3 н/о н/о +19.7 +12.9 65 +22 +22 комфорт 1026.2 1013.3
05 12.09 С 5 н/о н/о +19.6 +12.8 65 +21 +21 комфорт 1026.9 1014.0
06 12.09 С 4
{8}
н/о н/о +19.3 +14.1 72 +21 +21 комфорт 1027.9 1014.9 +16.5
07 12.09 С 2 н/о н/о +19.7 +14.5 72 +22 +22 комфорт 1028.2 1015.3
08 12.09 С 4 н/о н/о +20.1 +14.9 72 +23 +23 комфорт 1028.8 1015.9
09 12.09 СВ 2 н/о н/о +22.5 +16.1 67 +27 +27 душно 1029.2 1016.4
10 12.09 СЗ 1 н/о н/о +22.1 +15.9 68 +26 +26 душно 1029.5 1016.6
11 12.09 С 2 н/о н/о +23.4 +16.0 63 +28 +28 душно 1029.5 1016.7
12 12.09 С 5
{7}
н/о н/о +24.2 +16.2 61 +28 +28 душно 1029.2 1016.4
13 12.09 СВ 4 н/о н/о +24.1 +15.3 58 +27 +27 жарко 1029.0 1016.2
14 12.09 С 3 н/о н/о +24.5 +16.7 62 +28 +28 душно 1028.6 1015.9
15 12.09 С 3 н/о н/о +23.9 +16.7 64 +27 +27 жарко 1028.4 1015.6
16 12.09 С 4 н/о н/о +22.8 +16.4 67 +27 +27 душно 1028.5 1015.7
17 12.09 С 4 н/о н/о +22.3 +16.1 68 +26 +26 жарко 1028.7 1015.9
18 12.09 СЗ 2 н/о н/о +21.3 +17.1 77 +25 +25 комфорт 1029.1 1016.2 +24.6
19 12.09 СЗ 5 н/о н/о +20.8 +15.6 72 +24 +24 комфорт 1029.5 1016.6
20 12.09 СЗ 5 н/о н/о +20.4 +15.6 74 +23 +23 комфорт 1029.8 1016.9
21 12.09 С 6
{8}
н/о н/о +19.9 +14.9 73 +22 +22 комфорт 1030.0 1017.0
22 12.09 С 7 н/о н/о +19.8 +15.0 74 +21 +21 комфорт 1030.0 1017.0
23 12.09 СЗ 7 н/о н/о +19.6 +14.4 72 +21 +21 комфорт 1030.1 1017.1
00 13.09 СЗ 5
{7}
н/о н/о +19.5 +14.1 71 +21 +21 комфорт 1030.0 1017.0
01 13.09 СЗ 4 н/о н/о +19.2 +13.8 71 +20 +20 1029.9 1016.9
02 13.09 СЗ 4 н/о н/о +19.0 +14.3 74 +20 +20 1029.8 1016.8
03 13.09 ЮЗ 2
{8}
н/о н/о +16.2 +12.4 78 +16 +16 1030.0 1016.9
04 13.09 З 4 н/о н/о +18.6 +14.3 76 +19 +19 1029.9 1016.9
05 13.09 З 3 н/о н/о +18.3 +13.6 74 +19 +19 1030.1 1017.1
06 13.09 З 4 н/о н/о +18.7 +14.8 78 +19 +19 1030.2 1017.2 +16.2
07 13.09 З 5 н/о н/о +19.5 +14.5 73 +21 +21 комфорт 1030.4 1017.4
08 13.09 З 5 н/о н/о +20.2 +15.0 72 +23 +23 комфорт 1030.5 1017.6
09 13.09 З 3 н/о н/о +22.4 +16.7 70 +27 +27 душно 1030.4 1017.5
10 13.09 З 3 н/о н/о +23.2 +17.0 68 +28 +28 душно 1030.1 1017.3
11 13.09 З 1 н/о н/о +24.0 +15.5 59 +27 +27 жарко 1029.8 1017.0
12 13.09 З 2 н/о н/о +23.8 +16.8 65 +27 +27 жарко 1029.2 1016.4
13 13.09 З 2 н/о н/о +24.8 +16.2 59 +28 +28 жарко 1028.9 1016.2
14 13.09 СЗ 3 н/о н/о +24.3 +15.0 56 +27 +27 жарко 1028.5 1015.8
15 13.09 С 3 н/о н/о +24.0 +17.5 67 +28 +28 душно 1028.3 1015.5
16 13.09 С 4 н/о н/о +23.6 +17.1 67 +27 +27 жарко 1028.1 1015.3
17 13.09 С 4 н/о н/о +22.9 +17.8 73 +28 +28 душно 1028.1 1015.3
18 13.09 СЗ 3 н/о н/о +22.1 +18.3 79 +27 +27 душно 1028.5 1015.7 +25.4
19 13.09 СЗ 3 н/о н/о +21.8 +18.2 80 +27 +27 душно 1028.8 1015.9
20 13.09 З 3 н/о н/о +20.9 +17.5 81 +25 +25 комфорт 1028.9 1016.0
21 13.09 З 4 н/о н/о +20.0 +16.6 81 +23 +23 комфорт 1029.0 1016.1
22 13.09 З 5 н/о н/о +20.2 +17.0 82 +23 +23 комфорт 1029.1 1016.2
23 13.09 З 4 н/о н/о +20.5 +17.1 81 +24 +24 комфорт 1029.1 1016.2
00 14.09 СЗ 4 н/о н/о +20.5 +16.1 76 +24 +24 комфорт 1028.9 1016.0
01 14.09 С 6 н/о н/о +20.6 +16.4 77 +24 +24 комфорт 1028.6 1015.7
02 14.09 С 6 н/о н/о +20.2 +16.2 78 +23 +23 комфорт 1028.4 1015.5
03 14.09 С 7
{9}
н/о н/о +19.7 +16.2 80 +21 +21 комфорт 1028.6 1015.7
04 14.09 С 8 н/о н/о +19.8 +16.1 79 +22 +22 комфорт 1028.6 1015.7
05 14.09 С 7 н/о н/о +19.5 +16.0 80 +21 +21 комфорт 1029.0 1016.0
06 14.09 С 7
{11}
н/о н/о +19.5 +15.6 78 +21 +21 комфорт 1029.3 1016.3 +19.3
07 14.09 С 7 н/о н/о +20.4 +16.2 77 +23 +23 комфорт 1029.6 1016.7
08 14.09 СВ 6 н/о н/о +21.2 +16.0 72 +25 +25 комфорт 1029.8 1016.9
09 14.09 СВ 4 н/о н/о +22.9 +15.7 64 +27 +27 душно 1029.9 1017.1
10 14.09 СВ 3 н/о н/о +23.6 +15.9 62 +27 +27 жарко 1030.0 1017.2
11 14.09 С 6 н/о н/о +23.4 +16.2 64 +28 +28 душно 1029.7 1016.9
12 14.09 С 4 н/о н/о +23.7 +16.0 62 +27 +27 жарко 1029.3 1016.5
13 14.09 СВ 2 н/о н/о +24.5 +14.9 55 +27 +27 жарко 1028.8 1016.1
14 14.09 С 4 н/о н/о +24.0 +16.3 62 +27 +27 жарко 1028.5 1015.7
15 14.09 С 6
{7}
н/о н/о +23.3 +15.4 61 +28 +28 душно 1028.1 1015.3
16 14.09 С 6 н/о н/о +22.5 +15.8 66 +27 +27 душно 1028.1 1015.3
17 14.09 С 5 н/о н/о +21.9 +14.5 63 +25 +25 комфорт 1028.0 1015.2
18 14.09 С 5
{7}
н/о н/о +21.1 +14.5 66 +24 +24 комфорт 1028.5 1015.6 +24.5
19 14.09 С 5 н/о н/о +20.4 +13.6 65 +23 +23 комфорт 1028.9 1016.0
20 14.09 СВ 5 н/о н/о +19.3 +11.8 62 +20 +20 1029.4 1016.4
21 14.09 С 4
{7}
н/о н/о +18.6 +9.9 57 +19 +19 1029.6 1016.6
22 14.09 С 6 н/о н/о +18.4 +9.2 55 +18 +18 1029.5 1016.5
23 14.09 С 4 н/о н/о +18.2 +9.8 58 +18 +18 1029.4 1016.4
00 15.09 СВ 4 н/о н/о +17.0 +9.4 61 +17 +17 1029.4 1016.3
01 15.09 В 2 н/о н/о +15.5 +9.4 67 +15 +15 1028.9 1015.8
02 15.09 В 3 н/о н/о +15.3 +8.1 62 +15 +15 1029.0 1015.9
03 15.09 ЮВ 1 н/о н/о +12.5 +7.6 72 +13 +13 1028.9 1015.6
04 15.09 В 1 н/о н/о +12.3 +7.8 74 +12 +12 1029.0 1015.7
05 15.09 ЮВ 1 н/о н/о +12.6 +8.1 74 +13 +13 1028.7 1015.4
06 15.09 В 1 н/о н/о +14.5 +8.0 65 +15 +15 1028.7 1015.5 +12.0
07 15.09 В 2 н/о н/о +16.4 +8.1 58 +17 +17 1028.8 1015.7
08 15.09 В 2 н/о н/о +17.8 +7.5 51 +18 +18 1028.6 1015.6
09 15.09 С 2 н/о н/о +18.9 +9.9 56 +20 +20 1028.1 1015.1
10 15.09 С 3 н/о н/о +18.8 +10.6 59 +20 +20 1027.9 1014.9
11 15.09 С 2 н/о н/о +19.7 +11.2 58 +22 +22 комфорт 1027.0 1014.1
12 15.09 С 2 н/о н/о +21.1 +11.7 55 +24 +24 комфорт 1025.9 1013.0
13 15.09 С 2 н/о н/о +21.9 +12.7 56 +24 +24 комфорт 1025.1 1012.3
14 15.09 СВ 2 н/о н/о +22.7 +12.9 54 +26 +26 жарко 1024.2 1011.4
15 15.09 С 1 н/о н/о +23.6 +13.5 53 +26 +26 жарко 1023.3 1010.6
16 15.09 З 2 н/о н/о +22.4 +15.5 65 +26 +26 жарко 1022.9 1010.1
17 15.09 ЮЗ 2 н/о н/о +22.5 +14.9 62 +26 +26 жарко 1022.2 1009.5
18 15.09 Ю 2 н/о н/о +19.6 +13.5 68 +22 +22 комфорт 1022.0 1009.1 +23.7
19 15.09 Ю 2 н/о н/о +18.7 +13.6 72 +20 +20 1021.9 1009.0
20 15.09 ЮЗ 1 н/о н/о +18.4 +13.5 73 +20 +20 1021.8 1008.9
21 15.09 ЮЗ 2 н/о н/о +17.1 +13.6 80 +17 +17 1021.7 1008.7
22 15.09 ЮЗ 2 н/о н/о +16.6 +13.5 82 +17 +17 1021.5 1008.5
23 15.09 штиль 0 н/о н/о +16.5 +13.4 82 +16 +16 1021.4 1008.4
00 16.09 Ю 1 н/о н/о +15.6 +13.1 85 +16 +16 1020.9 1007.9
01 16.09 Ю 1 н/о н/о +15.2 +12.7 85 +16 +16 1020.7 1007.7
02 16.09 Ю 1 н/о н/о +14.9 +12.9 88 +15 +15 1020.4 1007.3
03 16.09 ЮЗ 3 н/о н/о +15.7 +13.2 85 +15 +15 1019.9 1006.9
04 16.09 ЮЗ 3 н/о н/о +16.0 +13.1 83 +16 +16 1019.7 1006.7
05 16.09 Ю 2 н/о н/о +15.7 +12.8 83 +16 +16 1019.7 1006.7
06 16.09 ЮЗ 3 н/о н/о +17.9 +14.2 79 +18 +18 1019.6 1006.7 +14.4
07 16.09 З 6 н/о н/о +18.8 +15.7 82 +19 +19 1019.7 1006.8
08 16.09 З 4 н/о н/о +20.6 +17.0 80 +24 +24 комфорт 1019.7 1006.9
09 16.09 З 4 н/о н/о +21.7 +18.7 83 +27 +27 душно 1019.1 1006.4
10 16.09 З 4 н/о н/о +22.4 +18.6 79 +28 +28 душно 1019.1 1006.4
11 16.09 З 5 н/о н/о +23.8 +19.3 76 +29 +29 душно 1018.4 1005.8
12 16.09 З 4 н/о н/о +25.1 +20.1 74 +31 +31 очень
душно
1017.5 1004.9
13 16.09 З 4 н/о н/о +25.1 +19.0 69 +30 +30 душно 1017.1 1004.5
14 16.09 З 4 н/о н/о +24.9 +19.1 70 +30 +30 душно 1016.6 1004.0
15 16.09 З 3 н/о н/о +24.7 +19.1 71 +30 +30 очень
душно
1015.9 1003.3
16 16.09 З 2 н/о н/о +24.8 +18.5 68 +29 +29 душно 1015.7 1003.1
17 16.09 ЮЗ 1 н/о н/о +24.8 +16.2 59 +28 +28 жарко 1015.2 1002.6
18 16.09 ЮЗ 2 н/о н/о +22.8 +15.9 65 +27 +27 душно 1015.1 1002.5 +25.4
19 16.09 В 1 н/о н/о +22.3 +16.6 70 +27 +27 душно 1015.5 1002.8
20 16.09 С 3 н/о н/о +22.0 +19.0 83 +27 +27 душно 1015.9 1003.2
21 16.09 Ю 1 н/о н/о +20.5 +17.3 82 +25 +25 комфорт 1015.5 1002.8
22 16.09 З 1 н/о н/о +19.6 +17.4 87 +23 +23 комфорт 1015.5 1002.7
23 16.09 СВ 4 н/о н/о +21.2 +18.2 83 +25 +25 комфорт 1015.4 1002.7
00 17.09 С 1 н/о н/о +21.1 +18.3 84 +25 +25 комфорт 1015.6 1002.9
01 17.09 ЮЗ 1 н/о н/о +20.6 +18.4 87 +26 +26 душно 1015.6 1002.9
02 17.09 штиль 0 н/о н/о +20.6 +18.0 85 +24 +24 комфорт 1015.0 1002.3
03 17.09 Ю 2 н/о н/о +19.5 +17.3 87 +22 +22 комфорт 1014.3 1001.5
04 17.09 ЮЗ 2 н/о н/о +19.6 +16.3 81 +22 +22 комфорт 1014.1 1001.3
05 17.09 СЗ 3 н/о н/о +20.6 +17.0 80 +24 +24 комфорт 1014.8 1002.1
06 17.09 З 3 н/о н/о +20.7 +17.3 81 +25 +25 комфорт 1014.9 1002.2 +19.4
07 17.09 ЮЗ 3 н/о н/о +20.3 +18.1 87 +24 +24 комфорт 1015.0 1002.3
08 17.09 З 5 н/о н/о +20.4 +17.6 84 +24 +24 комфорт 1015.9 1003.1
09 17.09 СЗ 4 н/о н/о +21.5 +15.8 70 +25 +25 комфорт 1016.1 1003.4
10 17.09 С 3 н/о н/о +21.0 +14.4 66 +24 +24 комфорт 1016.0 1003.3
11 17.09 З 3 н/о н/о +21.1 +15.2 69 +24 +24 комфорт 1015.7 1003.0
12 17.09 ЮЗ 2 н/о н/о +21.8 +15.4 67 +25 +25 комфорт 1015.3 1002.6
13 17.09 ЮЗ 3 н/о н/о +22.4 +16.0 67 +27 +27 душно 1014.9 1002.2
14 17.09 З 1 н/о н/о +22.8 +16.1 66 +27 +27 душно 1014.3 1001.7
15 17.09 В 2 н/о н/о +23.0 +15.8 64 +27 +27 душно 1013.5 1000.9
16 17.09 СВ 2 н/о н/о +22.2 +15.8 67 +26 +26 душно 1013.4 1000.8
17 17.09 С 4 н/о н/о +21.5 +16.5 73 +25 +25 комфорт 1013.2 1000.5
18 17.09 С 5
{7}
н/о н/о +20.5 +17.3 82 +24 +24 комфорт 1013.8 1001.1 +23.2
19 17.09 С 4 н/о н/о +19.3 +17.1 87 +21 +21 комфорт 1014.2 1001.4
20 17.09 СВ 2 н/о н/о +18.9 +15.8 82 +21 +21 комфорт 1014.4 1001.6
21 17.09 С 5
{9}
н/о н/о +19.5 +14.3 72 +21 +21 комфорт 1015.0 1002.2
22 17.09 С 9 н/о н/о +19.6 +14.6 73 +21 +21 комфорт 1014.8 1002.0
23 17.09 С 11 н/о н/о +19.3 +13.9 71 +20 +20 1015.1 1002.3
00 18.09 С 10
{13}
н/о н/о +18.8 +12.8 68 +19 +19 1015.7 1002.9 0.6
01 18.09 С 8 н/о н/о +18.4 +12.8 70 +18 +18 1016.2 1003.4
02 18.09 С 9 н/о н/о +17.2 +11.0 67 +16 +16 1016.9 1004.0
03 18.09 С 9
{12}
н/о н/о +16.1 +9.1 63 +14 +14 1018.4 1005.4
04 18.09 С 8 н/о н/о +15.7 +8.7 63 +14 +14 1019.0 1006.0
05 18.09 С 6 н/о н/о +15.1 +6.7 57 +14 +14 1019.7 1006.7
06 18.09 С 10
{14}
н/о н/о +14.6 +7.4 62 +12 +12 1020.9 1007.8 +14.5 0.6
07 18.09 С 10 н/о н/о +15.0 +7.3 60 +13 +13 1021.5 1008.4
08 18.09 С 10 н/о н/о +15.3 +7.6 60 +13 +13 1022.5 1009.4
09 18.09 С 9
{16}
н/о н/о +15.7 +6.4 54 +14 +14 1023.1 1010.0
10 18.09 С 8 н/о н/о +16.2 +5.8 50 +15 +15 1023.2 1010.2
11 18.09 СВ 7 н/о н/о +16.8 +5.4 47 +16 +16 1023.2 1010.2
12 18.09 СВ 5
{9}
н/о н/о +17.8 +4.7 42 +17 +17 1022.9 1009.9
13 18.09 СВ 5 н/о н/о +18.1 +3.6 38 +18 +18 1022.8 1009.9
14 18.09 С 3 н/о н/о +18.4 +3.8 38 +19 +19 1022.5 1009.6
15 18.09 СВ 3 н/о н/о +18.5 +1.1 31 +19 +19 1022.3 1009.4
16 18.09 С 4 н/о н/о +17.9 +2.2 35 +18 +18 1022.1 1009.2
17 18.09 С 5 н/о н/о +17.4 +3.7 40 +17 +17 1022.3 1009.3
18 18.09 С 5
{7}
н/о н/о +17.0 +4.0 42 +16 +16 1023.0 1010.0 +18.7
19 18.09 С 5 н/о н/о +16.9 +4.6 44 +16 +16 1023.4 1010.4

 

Местоположение метеостанции Шиофок (Венгрия): широта 46.92 долгота 18.05 высота над уровнем моря 109 м.

В архиве по умолчанию представлена погода в Шиофоке за последнюю неделю. Архивные данные за месяц целиком и за предыдущие месяцы, начиная с января 2011 года, Вы можете получить, выбрав интересующий диапазон дат из раскрывающегося списка и нажав кнопку "Ввод!".


*Определитесь, кто Вы:
робот инопланетянин человек

Внимание! Время в таблицах - всемирное. Для получения местного времени необходимо прибавить поправку, которая равна 1 ч.

Смотрите также архив погоды в соседних городах и на ближайших метеорологических станциях:

Погода в Веспреме (Венгрия) (24 км)
Погода в Агарде (Венгрия) (52 км)
Погода в Капошваре (Венгрия) (62 км)
Погода на Базе ВВС Папа (Венгрия) (64 км)
Погода в Пакше (Венгрия) (72 км)
Погода в Шармеллеке (Венгрия) (72 км)
Погода в Пер аэропорту (Венгрия) (80 км)
Погода в Тате (Венгрия) (84 км)
Погода в Дьере (Венгрия) (93 км)
Погода в Залаэгерсеге (Венгрия) (95 км)

Пояснения к столбцам:

Ветер - указаны скорость ветра в м/с - средняя за 10 мин, порывы в срок и между сроками (в фигурных скобках) и направление, откуда дует ветер: С - северный, СВ - северо-восточный, В - восточный, ЮВ - юго-восточный, Ю - южный, ЮЗ - юго-западный, З - западный, СЗ - северо-западный.
Видимость - горизонтальная дальность видимости в метрах или километрах. При видимости от 1 до 10 км при отсутствии осадков обычно наблюдается дымка, при ухудшении видимости до 1 км и менее - туман. В сухую погоду видимость может ухудшаться дымом, пылью или мглою.
Явления - указаны атмосферные явления, наблюдавшиеся в срок или в последний час перед сроком; фигурными скобками обозначены явления, наблюдавшиеся между сроками (за 1-3 часа до срока); квадратными скобками обозначены град или гололедные отложения с указанием их диаметра в мм.
Облачность - указаны через наклонную черту общая и нижняя облачность в баллах и высота нижней границы облаков в метрах; квадратными скобками обозначены формы облаков: Ci - перистые, Cs - перисто-слоистые, Cc - перисто-кучевые, Ac - высококучевые, As - высокослоистые, Sc - слоисто-кучевые, Ns - слоисто-дождевые, Cu - кучевые, Cb - кучево-дождевые. Подробнее классификацию облаков см. в Атласе облаков (PDF).
T - Температура воздуха - температура, измеренная на высоте 2 м над землей.
Td - Температура точки росы - температура, при понижении до которой содержащийся в воздухе водяной пар достигнет насыщения.
f - Относительная влажность воздуха - влажноcть воздуха, измеренная на высоте 2 м над землей.
Te - Эффективная температура - температура, которую ощущает одетый по сезону человек в тени. Характеристика душности погоды. При расчете учитывается влияние влажности воздуха и скорости ветра на теплоощущения человека.
Tes - Эффективная температура на солнце - температура, которую ощущает человек, с поправкой на солнечный нагрев. Характеристика знойности погоды. Зависит от высоты солнца над горизонтом, облачности и скорости ветра. Ночью, в пасмурную погоду, а также при ветре 12 м/с и более поправка равна нулю.
P - Атмосферное давление - приведенное к уровню моря атмосферное давление.
Po - Атмосферное давление - измеренное на уровне метеостанции атмосферное давление.
Tmin - Минимальная температура - минимум температуры воздуха на высоте 2 м над землей.
Tmax - Максимальная температура - максимум температуры воздуха на высоте 2 м над землей.
R - Количество осадков - Количество выпавших осадков за период времени, мм. При наведении курсора мыши на число - период времени, за который выпало указанное количество осадков.
R24 - Количество осадков - Количество выпавших осадков за 24 часа, мм.
S - Снежный покров - Высота снежного покрова, см. При наведении курсора мыши на число - состояние снежного покрова и степень покрытия местности в баллах.